Vertical_Velocity
4 6 5 1 -2 -0 2 -0 -2 5 7 -1 7 -3 1 -1 1 -2 -1 2 -2 -3 -2 -3 0 1 -1 -2 -1 -3 -3 -1 -2 -3 -4 -0 0 -0
2 0 0 -1 0 -1 1 1 -3 -1 10 -7 2 2 -2 -1 -0 -3 -0 -3 1 -2 1 -1 -1 -5 -3 0 3 2 1 1 1 -0 -1 -2 -2 1
0 -2 -0 -1 1 0 -1 1 3 -5 -6 20 1 0 8 -3 7 -2 -3 -5 -1 -2 2 -1 -3 -1 -1 -2 -1 -0 -1 -1 -0 2 0 1 1 2
-3 1 -0 1 2 1 1 -1 0 -2 -5 0 4 -1 -0 3 3 -0 1 -2 1 1 1 0 1 -0 -1 -0 -3 0 -0 1 -2 -2 -1 -0 3 3
-1 0 -0 -0 -1 1 -0 1 -1 1 -3 -4 -3 2 0 4 10 0 -1 2 -6 -0 1 -3 5 3 4 4 6 3 2 1 1 1 1 1 1 0
0 1 1 1 1 -1 -2 -0 -0 -1 -2 -0 -1 -4 2 -1 -1 5 3 -2 3 -3 -0 2 4 2 -0 3 2 2 7 11 11 7 -1 -4 -2 -1
1 -0 -1 1 -0 -2 -1 3 1 -0 -4 2 -1 3 5 -5 -4 -4 -3 11 -3 2 5 5 -6 -3 2 2 1 2 1 -2 -1 0 -0 3 6 6
2 -1 1 1 0 -0 5 3 1 -3 -1 -4 9 11 -16 -3 -3 -2 -1 3 0 -2 -5 11 -12 -4 -3 -2 -1 -0 -1 3 -1 3 2 8 5 5
-2 -1 -1 -0 1 -2 -1 1 0 2 5 26 0 -0 -1 2 5 -3 -6 -2 -6 -5 -4 10 2 4 -2 3 -9 -9 4 -1 -4 -1 -2 -1 -2 1
-3 -2 -2 -1 1 -0 -1 0 -6 1 10 -4 2 2 2 3 1 3 3 -0 -5 -13 -7 -4 -3 2 11 10 2 -1 2 4 2 2 1 -0 2 0
-1 -1 -1 -1 13 -3 -2 9 9 -3 2 4 2 -2 -2 -2 2 -2 -6 -7 -1 1 -3 -17 -9 -7 -5 3 -1 3 0 -4 -1 -3 -2 2 -0 -3
-3 -2 0 1 -1 -2 6 -2 1 -0 -1 -2 -1 0 3 -2 -2 -3 -2 2 1 10 -2 -6 0 -12 -2 16 2 2 2 10 8 -1 -3 1 10 3
2 -5 9 1 1 5 -7 3 1 -2 -2 -0 -1 -2 -3 -5 -4 -5 -6 -7 -5 -6 -13 -13 -3 -1 -6 -20 7 1 -1 6 7 15 2 8 4 -1
-2 -3 -4 -3 3 8 -3 -1 4 -1 -1 -3 -3 -2 -2 -1 -2 -4 -4 -2 -6 -5 -0 -2 0 -6 -6 -4 -9 10 -1 -2 -2 1 2 6 10 -0
-2 -2 2 6 1 -2 -1 6 -0 -0 -3 -3 -1 -0 -1 1 1 2 -1 1 -1 -2 -4 -7 -8 -3 -7 -8 -15 1 -11 5 1 -2 -0 -0 1 2
-2 1 3 1 0 7 6 4 -1 -0 0 -0 -0 -1 0 -0 -5 -5 0 1 4 7 -6 -9 -6 -9 -1 -6 -8 -7 -9 -11 4 1 -5 -2 0 -5
6 2 2 6 7 2 -3 -1 2 0 -1 -2 -1 -2 -3 -2 -3 -2 -5 -4 -9 -4 4 4 1 -3 -3 -6 1 -9 -9 3 -2 -3 -5 1 0 -3
4 5 1 3 -2 -5 -3 -3 -4 -3 -3 -4 -4 -3 -3 -3 -1 -4 -5 -5 -2 -3 -3 -6 -1 3 1 2 -16 -8 -3 -6 -2 -2 -6 0 4 -6
5 2 -1 -3 -3 -3 -2 -4 -3 -1 -3 -2 -1 -2 -3 -5 -5 -3 -3 -6 -2 -6 -7 -7 -3 -7 -0 4 2 -23 -1 1 -3 -2 -2 -1 0 -3
-2 0 -2 -2 -2 -1 -0 0 -1 -2 -2 -3 -4 -4 -6 -4 -1 -2 -5 -7 -5 -3 -3 -5 -3 -5 -7 -8 1 10 -10 2 -3 -2 -1 -2 -0 1
-1 -2 -1 -2 -1 -1 -1 -2 -3 -4 -5 -6 -7 -6 -5 -4 -5 -7 -5 -7 -5 -4 -3 -4 -3 -5 -4 -4 -3 -5 -4 -4 -3 -1 -1 -1 1 -0
-1 -1 2 -0 -1 -2 -3 -4 -3 -5 -9 -7 -7 -7 -9 -4 -5 -4 -4 -4 -4 -5 -2 -5 -3 -2 -5 -4 -1 -1 -2 -0 -1 -2 -1 0 1 -0
-3 0 -0 -4 -3 -3 -2 -5 -7 -6 -6 -6 -6 -4 -6 -3 -5 -7 -6 -5 -3 -4 -2 -4 -3 -3 -3 -1 0 1 -0 -1 -1 2 4 3 0 -2
Height
5716 5718 5719 5720 5721 5723 5724 5723 5723 5724 5724 5724 5723 5721 5720 5718 5718 5716 5713 5712 5709 5706 5702 5699 5695 5691 5688 5684 5680 5675 5672 5669 5664 5660 5657 5654 5652 5649
5710 5711 5712 5713 5715 5716 5716 5716 5716 5715 5717 5715 5716 5714 5712 5712 5709 5706 5703 5700 5697 5693 5690 5687 5682 5677 5673 5669 5665 5661 5657 5653 5648 5643 5640 5636 5633 5631
5704 5706 5708 5709 5710 5709 5709 5709 5708 5706 5705 5708 5706 5704 5702 5701 5700 5696 5693 5689 5685 5682 5678 5673 5669 5664 5659 5654 5649 5644 5640 5634 5630 5626 5622 5618 5614 5611
5700 5701 5702 5702 5703 5702 5701 5700 5698 5698 5696 5696 5695 5692 5691 5689 5687 5684 5679 5676 5672 5667 5662 5657 5652 5645 5639 5633 5627 5622 5618 5614 5609 5604 5600 5597 5594 5591
5695 5696 5696 5695 5695 5694 5693 5692 5691 5689 5687 5685 5683 5680 5677 5674 5671 5668 5664 5660 5655 5650 5645 5639 5633 5626 5621 5616 5611 5604 5598 5592 5586 5581 5577 5574 5571 5568
5688 5688 5686 5686 5687 5685 5684 5683 5681 5679 5677 5674 5671 5667 5663 5660 5657 5653 5648 5643 5637 5631 5625 5619 5612 5606 5600 5593 5587 5581 5576 5571 5566 5560 5555 5551 5547 5544
5679 5678 5678 5678 5678 5676 5675 5673 5671 5668 5665 5662 5657 5652 5650 5645 5640 5636 5632 5626 5619 5614 5608 5600 5593 5587 5580 5572 5565 5558 5552 5546 5540 5534 5529 5525 5521 5518
5671 5670 5670 5669 5668 5667 5665 5663 5660 5656 5652 5648 5644 5639 5634 5629 5624 5618 5614 5608 5602 5595 5589 5581 5570 5563 5556 5548 5540 5533 5526 5519 5512 5507 5502 5496 5491 5487
5662 5662 5661 5660 5659 5657 5654 5650 5646 5643 5637 5632 5629 5623 5618 5614 5609 5600 5593 5586 5579 5573 5568 5561 5551 5543 5533 5524 5512 5506 5498 5490 5483 5476 5469 5464 5459 5454
5653 5652 5651 5649 5646 5643 5639 5637 5632 5628 5624 5619 5613 5607 5601 5595 5588 5582 5573 5565 5555 5546 5542 5535 5526 5519 5511 5498 5485 5476 5468 5458 5449 5442 5434 5428 5422 5416
5642 5641 5638 5636 5633 5631 5625 5619 5615 5614 5608 5603 5596 5588 5582 5576 5567 5558 5548 5540 5531 5520 5511 5503 5497 5492 5483 5472 5459 5445 5433 5422 5411 5403 5395 5386 5378 5370
5633 5629 5628 5625 5621 5617 5611 5608 5604 5599 5592 5586 5579 5571 5562 5552 5543 5534 5525 5516 5506 5498 5485 5478 5466 5454 5457 5444 5427 5412 5399 5386 5371 5357 5347 5338 5329 5320
5623 5620 5618 5613 5605 5600 5599 5593 5588 5581 5574 5566 5558 5549 5539 5530 5520 5510 5500 5490 5480 5468 5454 5442 5433 5422 5409 5407 5396 5375 5358 5346 5330 5315 5298 5287 5276 5266
5609 5607 5602 5599 5593 5590 5583 5576 5570 5563 5554 5546 5537 5528 5519 5511 5500 5489 5477 5464 5450 5439 5426 5410 5397 5381 5368 5359 5350 5335 5311 5294 5277 5263 5253 5245 5236 5227
5595 5591 5588 5585 5579 5572 5566 5560 5552 5545 5536 5528 5520 5511 5501 5490 5479 5467 5454 5440 5423 5407 5391 5375 5358 5341 5320 5303 5291 5279 5265 5259 5236 5223 5214 5208 5200 5193
5579 5577 5573 5568 5562 5556 5550 5543 5535 5527 5520 5510 5500 5490 5479 5467 5455 5443 5430 5415 5398 5378 5355 5336 5317 5297 5280 5260 5243 5233 5224 5215 5209 5194 5183 5176 5169 5163
5564 5559 5555 5550 5544 5539 5533 5526 5518 5509 5500 5490 5479 5468 5457 5444 5430 5417 5401 5385 5367 5349 5330 5306 5284 5265 5247 5230 5219 5201 5198 5191 5179 5168 5158 5153 5146 5140
5549 5544 5538 5532 5528 5523 5517 5507 5498 5490 5481 5470 5460 5447 5434 5420 5404 5388 5370 5351 5332 5311 5290 5274 5260 5247 5229 5211 5189 5181 5179 5168 5159 5148 5140 5136 5130 5124
5533 5529 5523 5519 5514 5506 5497 5489 5480 5470 5460 5449 5437 5424 5409 5393 5377 5359 5339 5319 5300 5280 5261 5246 5234 5221 5213 5204 5185 5163 5165 5156 5145 5137 5130 5125 5121 5119
5520 5515 5511 5505 5498 5489 5480 5471 5461 5451 5439 5426 5413 5399 5384 5367 5348 5328 5309 5292 5275 5259 5242 5226 5214 5204 5194 5186 5179 5167 5153 5148 5139 5132 5127 5122 5120 5121
5506 5501 5496 5489 5480 5472 5462 5451 5441 5429 5417 5404 5390 5374 5357 5340 5320 5303 5286 5269 5254 5239 5225 5214 5206 5196 5186 5177 5169 5160 5152 5146 5139 5134 5129 5127 5126 5127
5492 5487 5479 5471 5462 5453 5442 5432 5420 5408 5395 5381 5365 5347 5331 5315 5299 5283 5268 5253 5237 5227 5217 5209 5201 5192 5182 5175 5169 5164 5158 5153 5147 5143 5139 5137 5137 5141
5478 5470 5462 5453 5444 5434 5423 5412 5400 5387 5373 5356 5341 5326 5310 5295 5279 5265 5251 5239 5230 5222 5214 5205 5198 5190 5185 5181 5176 5172 5168 5164 5160 5157 5155 5154 5153 5158